This demonstration page uses our WeatherBlox Daily Observations layout. Learn more.

41.55636, -103.73856

Hourly Observations for March 20, 2019

Temp ( °F °C ) Dew Point ( °F °C ) Humidity (%) Winds ( mph kmh ) Pressure ( in mb ) Visibility ( mi km ) Precip ( " mm )
12:58 am 00:58 Clear 33 0.6 21 -6 62 62 NNW 15 24 30.34 1027 10 16.0934 0 0
1:58 am 01:58 Clear 32 0.1 20 -6.5 62 62 N 16 26 30.36 1028 10 16.0934 0 0
2:58 am 02:58 Clear 31 -0.8 21 -6.3 67 67 NNW 12 19 30.37 1029 10 16.0934 0 0
3:58 am 03:58 Clear 28 -2.2 21 -6.3 74 74 NNW 8 13 30.37 1029 10 16.0934 0 0
4:58 am 04:58 Clear 26 -3.3 21 -6.1 81 81 W 9 15 30.38 1029 10 16.0934 0 0
5:58 am 05:58 Clear 26 -3.4 21 -6.3 81 81 W 10 17 30.37 1029 10 16.0934 0 0
6:58 am 06:58 Clear 26 -3.1 20 -6.7 76 76 W 13 20 30.37 1029 10 16.0934 0 0
7:58 am 07:58 Clear 26 -3.3 20 -6.7 78 78 W 15 24 30.36 1028 10 16.0934 0 0
8:58 am 08:58 Clear 26 -3.4 19 -7.1 76 76 W 15 24 30.35 1028 10 16.0934 0 0
9:58 am 09:58 Clear 28 -2.4 19 -7.5 68 68 WNW 14 22 30.33 1027 10 16.0934 0 0
10:58 am 10:58 Clear 28 -2.3 18 -7.6 67 67 WNW 15 24 30.33 1027 10 16.0934 0 0
11:58 am 11:58 Clear 27 -2.7 19 -7.5 70 70 WNW 14 22 30.34 1028 10 16.0934 0 0
12:58 pm 12:58 Clear 27 -2.8 19 -7.5 70 70 WNW 13 20 30.35 1028 10 16.0934 0 0
1:58 pm 13:58 Sunny 28 -2.4 19 -7.5 68 68 WNW 15 24 30.35 1028 10 16.0934 0 0
4:58 pm 16:58 Sunny 40 4.6 15 -9.4 36 36 NW 20 31 30.35 1028 10 16.0934 0 0
5:58 pm 17:58 Sunny 42 5.5 21 -6.1 43 43 NW 15 24 30.36 1028 10 16.0934 0 0
6:58 pm 18:58 Sunny 43 6.2 23 -4.9 45 45 NNW 15 24 30.35 1028 10 16.0934 0 0
7:58 pm 19:58 Sunny 45 7.3 25 -4.1 45 45 NNW 17 28 30.32 1027 10 16.0934 0 0
8:58 pm 20:58 Sunny 47 8.2 27 -2.8 46 46 NW 14 22 30.32 1027 10 16.0934 0 0
9:58 pm 21:58 Sunny 48 8.8 26 -3.5 42 42 NNW 15 24 30.3 1026 10 16.0934 0 0
10:58 pm 22:58 Sunny 48 8.9 27 -2.8 44 44 NNW 12 19 30.3 1026 10 16.0934 0 0
11:58 pm 23:58 Sunny 47 8.2 29 -1.8 50 50 NW 10 17 30.31 1026 10 16.0934 0 0

Powered by AerisWeather